Home   Weather   Memphis   Past weeks
Flag for USA

Past Weather in Memphis, Tennessee, USA — Yesterday and Last 2 Weeks

Now
40 °F

Fog.


Feels Like: 38 °F
Forecast: 58 / 40 °F
Wind: 3 mph from Southwest

Location: Memphis International Airport

Current Time: Dec 8, 2019 at 7:02:44 am

Latest Report: Dec 8, 2019 at 5:54 am


Visibility: 0 mi

Pressure: 30.16 "Hg

Humidity: 100%

Dew Point: 40 °F

Location of MemphisLocation

Past Weather in Memphis — Graph

°F

Memphis Temperature Yesterday

Maximum temperature yesterday: 51 °F (at 1:54 pm)
Minimum temperature yesterday: 41 °F (at 8:54 pm)
Average temperature yesterday: 44 °F

High & Low Weather Summary for the Past Weeks

 TemperatureHumidityPressure
High70 °F (Nov 26, 11:54 pm)100% (Nov 23, 6:54 am)30.45 "Hg (Nov 23, 6:54 am)
Low31 °F (Dec 2, 10:54 pm)34% (Nov 27, 4:54 am)29.58 "Hg (Nov 30, 3:01 pm)
Average50 °F73%30.01 "Hg
* Reported Nov 23 5:54 am — Dec 8 5:54 am, Memphis. Weather by CustomWeather, © 2019

Note: Actual official high and low records may vary slightly from our data, if they occured in-between our weather recording intervals... More about our weather records

Memphis Weather History for the Previous 24 Hours

Scroll right to see more
 ConditionsComfort  
Time TempWeatherWind HumidityBarometerVisibility
5:54 am
Sun, Dec 8
40 °FFog.3 mph100%30.16 "Hg0 mi
5:22 am40 °FFog.3 mph100%30.16 "Hg0 mi
4:54 am40 °FFog.3 mph100%30.16 "Hg0 mi
4:08 am40 °FFog.No wind100%30.16 "Hg0 mi
2:54 am40 °FFog.3 mph100%30.17 "Hg0 mi
1:54 am40 °FFog.No wind100%30.18 "Hg0 mi
12:54 am41 °FFog.3 mph100%30.19 "Hg0 mi
11:54 pm
Sat, Dec 7
41 °FFog.No wind100%30.21 "Hg0 mi
10:54 pm41 °FFog.3 mph100%30.23 "Hg0 mi
9:54 pm41 °FFog.No wind100%30.24 "Hg0 mi
9:30 pm41 °FFog.3 mph100%30.24 "Hg0 mi
9:18 pm41 °FFog.3 mph100%30.25 "Hg0 mi
8:54 pm41 °FFog.3 mph96%30.26 "Hg0 mi
7:54 pm42 °FFog.3 mph92%30.25 "Hg3 mi
6:54 pm42 °FFog.No wind96%30.25 "Hg3 mi
5:54 pm42 °FFog.6 mph92%30.26 "Hg4 mi
4:54 pm43 °FFog.6 mph93%30.26 "Hg4 mi
3:54 pm48 °FClear.8 mph80%30.27 "Hg5 mi
2:54 pm50 °FSunny.7 mph77%30.27 "Hg7 mi
1:54 pm51 °FSunny.6 mph74%30.28 "Hg6 mi
1:11 pm50 °FScattered clouds.5 mph77%30.29 "Hg6 mi
12:54 pm49 °FPartly sunny.3 mph77%30.29 "Hg6 mi
12:28 pm48 °FOvercast.7 mph80%30.31 "Hg2 mi
11:54 am46 °FFog.No wind86%30.32 "Hg2 mi
10:54 am45 °FFog.3 mph90%30.35 "Hg2 mi
9:54 am45 °FFog.7 mph90%30.35 "Hg2 mi
8:54 am44 °FFog.6 mph89%30.34 "Hg2 mi
7:54 am43 °FFog.7 mph93%30.34 "Hg2 mi
7:25 am43 °FFog.7 mph93%30.33 "Hg2 mi
Weather by CustomWeather, © 2019

See weather overview

Advertising